Location: Newark
(42.7133°N, 87.7910°W)
Time: 00:28:11
(UTC+00:00)

Vanguard 1 - Pass Details

Date: 25 September 2019
Orbit: 653 x 3830 km, 34.2° (Epoch: 22 October)

Event Time Altitude Azimuth Distance (km) Brightness Sun altitude
Rises 08:19:47 0° 253° (WSW) 7,652 - -35.4°
Reaches altitude 10° 08:24:45 10° 251° (WSW) 6,803 - -34.7°
Exits shadow 08:38:52 45° 235° (SW) 4,598 12.8 -32.6°
Maximum altitude 08:48:01 66° 176° (S) 3,775 12.7 -31.2°
Drops below altitude 10° 09:05:32 10° 99° (E) 5,345 14.4 -28.4°
Sets 09:08:53 0° 96° (E) 6,016 14.9 -27.9°
